Location: Harittu
(60.4117°N, 22.3089°E)
Time: 19:19:26
(UTC+00:00)

Daily predictions for brighter satellites

Satellite Brightness Start Highest point End
(mag) Time Altitude Azimuth Time Altitude Azimuth Time Altitude Azimuth
COSMOS 2487 3.6 15:26:41 10° NW 15:30:04 49° WSW 15:33:23 10° S
NOSS 2-2 (C) 4.5 15:26:05 10° WNW 15:30:49 71° SSW 15:37:21 10° SE
Cosmos 2082 4.0 15:26:05 10° NW 15:31:40 49° NE 15:37:15 10° ESE
Cosmos 1626 Rocket 4.4 15:27:35 10° NNW 15:31:58 58° W 15:36:19 10° S
Cosmos 1486 Rocket 4.3 15:29:01 10° NNW 15:34:15 51° NE 15:39:27 10° ESE
Cosmos 1602 Rocket 4.1 15:29:50 10° NNW 15:34:19 70° W 15:38:47 10° S
Cosmos 1939 Rocket 3.3 15:30:56 10° SE 15:34:38 40° ENE 15:38:19 10° N
Cosmos 1758 3.6 15:30:39 10° SSW 15:34:46 75° WNW 15:38:53 10° NNE
Cosmos 1943 Rocket 2.3 15:30:36 10° SW 15:36:10 79° NW 15:41:44 10° NE
Helios 1A Rocket 3.5 15:32:43 10° SE 15:36:29 36° ENE 15:40:15 10° N
Cosmos 2278 Rocket 3.3 15:32:37 10° W 15:37:51 36° NNW 15:43:05 10° NE
CZ-2C R/B 3.8 15:36:05 10° ESE 15:41:21 39° ENE 15:46:26 10° N
Cosmos 1371 Rocket 4.2 15:36:11 10° SW 15:41:31 81° NW 15:46:49 10° NNE
ADEOS Rocket 3.2 15:36:49 10° NNE 15:42:56 66° ESE 15:49:43 10° S
Cosmos 1455 Rocket 3.6 15:39:04 10° SSW 15:43:22 62° WNW 15:47:43 10° N
Cosmos 1953 Rocket 3.7 15:39:02 10° N 15:43:23 55° ENE 15:47:44 10° SSE
Envisat 3.7 15:38:40 10° S 15:43:42 60° WSW 15:48:46 10° NNW
Cosmos 1503 Rocket 4.5 15:38:48 10° NNW 15:43:45 41° NE 15:48:43 10° ESE
ATLAS 5 CENTAUR R/B 1.8 15:41:08 10° SW 15:45:26 69° SE 15:50:30 10° ENE
Cosmos 2058 3.9 15:43:08 10° N 15:46:35 25° ENE 15:50:01 10° ESE
EP 3 3.5 15:45:30 10° SW 15:47:25 66° SSE 15:49:07 13° ENE
Cosmos 371 Rocket 3.4 15:45:04 10° SW 15:49:55 82° WNW 15:54:50 10° NNE
Lacrosse 5 2.4 15:46:46 10° SW 15:51:39 50° SSE 15:56:23 11° E
CZ-4B R/B 3.8 15:46:13 10° S 15:51:46 64° WSW 15:57:15 10° NNW
Cosmos 2056 Rocket 3.6 15:46:49 10° SW 15:51:59 78° NW 15:57:09 10° NNE
Cosmos 2058 Rocket 4.2 15:49:37 10° SE 15:53:07 23° E 15:56:39 10° NNE
Cosmos 1726 2.6 15:49:28 10° SSW 15:53:11 64° WNW 15:56:55 10° N
Cosmos 1844 Rocket 3.9 15:49:02 10° WNW 15:53:55 29° N 15:58:50 10° ENE
Cosmos 1354 Rocket 4.4 15:49:35 10° NNW 15:54:37 43° NE 15:59:39 10° ESE
USA 281 4.2 15:49:01 10° S 15:55:25 54° WSW 16:01:53 10° NW
CZ-4 R/B 1.7 15:52:45 10° SE 15:56:22 39° ENE 15:59:59 10° N
Cosmos 1356 Rocket 3.4 15:53:34 10° S 15:57:51 76° ESE 16:02:12 10° NNE
Cosmos 2227 Rocket 2.2 15:52:11 10° NW 15:57:54 81° NE 16:03:35 10° SE
NOSS 2-1 (E) 3.4 15:54:36 10° SW 15:57:57 51° SE 16:01:32 12° ENE
YAOGAN 6 3.9 15:54:33 10° S 15:58:06 46° W 16:01:43 10° NNW
Cosmos 1400 Rocket 4.1 15:55:05 10° SE 15:58:08 20° E 16:01:10 10° NE
ARGOS 3.9 15:53:24 10° ESE 15:58:11 33° NE 16:02:59 10° N
Meteor 1-16 Rocket 4.1 15:53:36 10° S 15:59:10 75° ESE 16:04:36 10° NNE
ERBS 3.2 15:59:07 10° SW 16:02:16 38° SSE 16:04:52 14° E
Cosmos 1656 Rocket 3.7 15:57:39 10° SSW 16:03:16 78° SE 16:08:59 10° NE
Cosmos 2263 Rocket 2.9 16:00:03 10° NW 16:05:23 39° NNE 16:10:02 13° E
Cosmos 1908 3.1 16:03:51 10° S 16:07:42 79° ESE 16:11:37 10° NNE
Cosmos 1892 3.1 16:04:07 10° N 16:07:49 41° ENE 16:11:31 10° SE
Cosmos 1452 Rocket 3.5 16:03:06 10° SSW 16:08:20 69° ESE 16:13:37 10° NE
COSMO-SKYMED 1 3.3 16:05:39 10° NNE 16:09:34 31° E 16:13:27 10° SSE
Cosmos 332 Rocket 4.0 16:04:47 10° SW 16:09:43 80° NW 16:14:41 10° NNE
SJ 16-02 3.2 16:07:11 10° NNW 16:10:08 17° NNE 16:12:24 12° ENE
CSL-04 DEB 4.3 16:06:41 10° NNE 16:10:41 82° ESE 16:14:37 10° SSW
USA 305 4.3 16:06:59 10° WSW 16:10:53 33° S 16:14:44 10° SE
CZ-4B R/B 1.5 16:08:37 10° NNE 16:11:51 47° ESE 16:14:57 10° S
H-2A R/B 2.1 16:09:27 10° NNE 16:13:42 81° WNW 16:17:51 10° SSW
SL-16 R/B 4.4 16:09:08 10° NNE 16:13:59 25° NW 16:18:52 10° W
CSL-04 Rocket 4.0 16:08:53 10° SE 16:14:11 48° ENE 16:19:28 10° NNW
GEOS 3 Rocket 3.9 16:09:35 10° SE 16:14:59 74° SW 16:20:25 10° WNW
USA 306 4.3 16:13:19 10° WSW 16:17:10 32° SSW 16:21:00 10° SE
SL-4 R/B 3.6 16:14:28 10° SW 16:17:10 20° S 16:19:47 11° SE
Cosmos 1076 Rocket 4.1 16:13:38 10° N 16:17:32 33° ENE 16:21:25 10° SE
Cosmos 1346 Rocket 3.1 16:14:27 10° N 16:18:18 43° ENE 16:22:08 10° SE
COSMOS 2455 3.5 16:14:12 10° W 16:20:02 46° N 16:25:02 14° ENE
H-2A R/B 2.4 16:15:35 10° SE 16:20:48 50° ENE 16:26:05 10° NNW
Cosmos 1825 Rocket 4.3 16:16:26 10° NNW 16:20:51 59° W 16:25:13 10° S
SL-08 ROCKET BODY 4.5 16:15:04 10° N 16:21:04 58° ENE 16:27:08 10° SSE
Cosmos 2263 4.4 16:16:03 10° SW 16:21:51 78° NW 16:27:38 10° NE
Cosmos 1953 3.2 16:18:38 10° SSW 16:22:31 51° WNW 16:26:26 10° N
Cosmos 1408 3.0 16:19:24 10° N 16:22:50 38° ENE 16:26:17 10° SE
Cosmos 1697 Rocket 4.4 16:21:09 10° SE 16:22:26 13° ESE 16:22:26 13° ESE
Resurs 01 Rocket 3.5 16:23:18 13° NE 16:24:09 14° NE 16:26:23 10° N
Okean O Rocket 3.4 16:22:35 10° SSW 16:26:38 36° W 16:30:41 10° NNW
CZ-2D R/B 3.1 16:23:04 10° SSE 16:26:53 82° ENE 16:30:43 10° NNW
Cosmos 1300 2.8 16:23:15 10° S 16:26:57 50° E 16:30:40 10° NNE
Ariane Rocket 3.9 16:24:30 16° ESE 16:27:47 30° NE 16:32:12 10° N
Cosmos 1825 2.8 16:28:25 10° N 16:31:57 35° ENE 16:34:17 18° ESE
YAOGAN 1 2.5 16:28:14 10° SSE 16:32:32 70° ENE 16:36:53 10° NNW
CZ-4C R/B 4.5 16:30:46 10° N 16:33:45 35° WNW 16:36:46 10° SW
NOSS 3-4 (A) 3.7 16:27:19 10° WNW 16:33:53 84° NNE 16:39:52 16° ESE
NOSS 3-4 (C) 3.7 16:27:25 10° WNW 16:33:58 84° NNE 16:39:57 16° ESE
IRS-1C Rocket 4.5 16:31:16 10° S 16:36:32 69° WSW 16:41:51 10° NNW
NOSS 4 (H) 4.5 16:33:56 10° WNW 16:36:55 79° NNE 16:38:17 29° ESE
Cosmos 2297 Rocket 2.8 16:32:19 10° NW 16:37:55 59° WSW 16:43:28 10° SSE
Cosmos 1553 Rocket 4.2 16:32:52 10° SSE 16:38:51 47° E 16:44:49 10° NNE
In-Cosmos 22 Rocket 4.1 16:35:22 10° NNW 16:40:44 87° WSW 16:46:10 10° SSE
Cosmos 2369 Rocket 2.9 16:37:07 10° WSW 16:42:43 55° NW 16:48:22 10° NE
ERS-2 2.1 16:39:10 10° NNE 16:42:50 84° WNW 16:46:30 10° SSW
Cosmos 1726 Rocket 3.4 16:40:01 10° S 16:44:21 72° E 16:48:46 10° NNE
Cosmos 1340 3.0 16:41:40 10° NNW 16:45:26 68° WSW 16:49:11 10° S
Cosmos 1689 Rocket 2.1 16:43:48 20° NE 16:45:33 48° ESE 16:48:22 10° S
SAR-Lupe-4 3.4 16:43:11 10° NNE 16:46:47 69° ESE 16:50:22 10° S
Cosmos 1331 Rocket 3.9 16:42:29 10° SSW 16:47:34 62° ESE 16:52:41 10° NE
Cosmos 2227 4.4 16:43:35 10° NW 16:49:08 53° NE 16:52:25 24° ESE
NOSS 2-1 (C) 3.1 16:46:21 10° WSW 16:49:50 86° NNW 16:51:59 26° ENE
Cosmos 1633 4.5 16:49:10 10° NNE 16:50:32 15° NNE 16:50:32 15° NNE
CSL-04 Debris 4.1 16:47:46 10° SSE 16:53:13 81° ENE 16:58:45 10° NNW
SL-08 RB Rocket 4.0 16:50:39 21° SE 16:53:16 45° ENE 16:57:35 10° N
USA 215 3.5 16:48:42 18° ESE 16:53:43 63° SSW 17:00:14 10° W
SeaSat 1 2.4 16:49:26 11° SE 16:54:18 87° SW 16:59:18 10° NW
Cosmos 1818 3.6 16:49:25 10° WSW 16:54:54 88° NNW 16:58:43 21° ENE
Cosmos 304 Rocket 4.5 16:50:22 10° SW 16:55:04 53° NW 16:59:48 10° NNE
NOSS 2-1 (D) 3.1 16:51:35 10° WSW 16:55:04 83° NNW 16:57:04 29° ENE
Cosmos 2228 3.1 16:51:08 10° SSW 16:55:24 77° WNW 16:59:45 10° NNE
ATLAS 2AS CENTAUR R/B 2.9 16:48:12 10° WNW 16:56:04 85° NNE 17:01:08 22° ESE
Cosmos 1745 Rocket 3.9 16:49:56 10° NNW 16:56:16 80° ENE 17:02:35 10° SSE
Meteor 2-3 Rocket 4.3 16:52:11 10° N 16:57:32 39° ENE 17:00:06 26° ESE
SKYMED 2 3.5 16:53:32 10° NNE 16:57:55 71° ESE 17:02:16 10° S
Okean-O 3.0 16:53:36 10° S 16:58:01 65° WSW 17:02:28 10° NNW
Genesis I 3.8 16:54:34 10° W 16:58:20 47° N 17:00:04 27° NE
Cosmos 1606 Rocket 3.7 16:55:12 10° SSW 16:59:36 76° WNW 17:04:04 10° NNE
Cosmos 968 Rocket 4.0 16:55:46 10° NW 17:00:57 60° WSW 17:06:04 10° SSE
MetOp-A 4.5 17:01:28 25° ESE 17:04:09 45° ENE 17:09:16 10° NNW
Cosmos 1777 Rocket 4.1 16:59:20 10° NNW 17:04:29 56° NE 17:06:59 29° ESE
SAR-Lupe-1 4.0 17:01:06 10° NNE 17:04:43 87° WNW 17:08:19 10° SSW
RESURS DK-1 4.0 17:02:17 10° NW 17:05:43 24° N 17:07:04 20° NE
Cosmos 1441 Rocket 4.2 17:03:19 10° N 17:06:27 30° NE 17:06:27 30° NE
CZ-4C R/B 2.7 17:01:17 10° WNW 17:07:34 76° NNE 17:11:52 27° E
OBJECT-B 2.9 17:09:42 17° NNE 17:09:42 17° NNE 17:10:51 10° N
Meteor 2-15 4.5 17:02:20 10° S 17:08:18 55° E 17:14:17 10° NNE
Cosmos 2151 3.2 17:05:31 10° N 17:09:38 47° ENE 17:10:35 39° ESE
NOSS 4 (E) 4.4 17:07:57 10° WNW 17:10:59 89° NNE 17:11:18 69° ESE
Resurs 1-3 4.5 17:11:01 30° ENE 17:11:05 30° NE 17:14:56 10° N
Helios 1A Rocket 4.1 17:07:40 10° S 17:11:38 44° W 17:15:34 10° NNW
Aureole 3 2.4 17:08:59 10° S 17:12:01 84° ESE 17:13:15 32° NNE
HJ-1C 3.4 17:12:51 23° SSE 17:14:52 84° WSW 17:18:16 10° NNW
Cosmos 1110 Rocket 4.0 17:09:57 10° SSW 17:15:13 88° NW 17:20:29 10° NNE
MOS 1 Rocket 3.5 17:11:19 10° NNE 17:15:42 45° E 17:20:18 10° S
Cosmos 2082 4.1 17:10:22 10° NW 17:16:03 63° WSW 17:21:42 10° SSE
Cosmos 1302 Rocket 4.0 17:12:32 10° SSW 17:17:43 60° ESE 17:22:18 14° NE
PSLV R/B 3.9 17:14:10 10° NNE 17:18:24 86° ESE 17:22:35 10° SSW
Cosmos 1943 Rocket 3.4 17:15:36 10° W 17:20:40 35° NNW 17:24:57 14° NE
SJ-11-01 4.4 17:16:05 10° S 17:20:46 74° WSW 17:25:29 10° NNW
CZ-2C R/B 3.7 17:15:19 10° S 17:21:03 64° WSW 17:26:36 10° NNW
Cosmos 44 3.4 17:17:15 10° SSW 17:21:42 48° SE 17:22:33 43° E
Aureole 3 Rocket 3.5 17:17:20 10° SSW 17:21:44 87° WNW 17:28:02 10° NNE
Cosmos 2278 Rocket 3.6 17:18:30 10° WNW 17:23:24 29° N 17:26:10 20° NE
Cosmos 2058 3.3 17:19:47 10° NNW 17:23:52 62° W 17:27:55 10° S
SPOT 3 Rocket 4.1 17:23:50 36° ENE 17:24:41 39° NE 17:29:31 10° N
Cosmos 1503 Rocket 4.5 17:21:02 10° NW 17:26:11 61° WSW 17:31:09 11° SSE
Cosmos 1709 Rocket 3.9 17:19:46 10° NNW 17:26:11 78° ENE 17:32:34 10° SSE
Cosmos 1898 Rocket 4.4 17:21:31 10° NNW 17:26:21 33° NE 17:27:23 31° ENE
SJ-6B 3.0 17:26:17 52° ENE 17:26:29 52° ENE 17:30:32 10° N
ADEOS Rocket 4.3 17:22:43 10° NNE 17:28:20 41° NW 17:34:29 10° WSW
DMSP B5D1-3 4.5 17:24:58 10° NNE 17:30:05 59° ESE 17:35:11 10° S
ATLAS 5 CENTAUR R/B 2.0 17:25:38 10° W 17:30:12 65° N 17:32:11 37° ENE
Cosmos 2058 Rocket 3.3 17:26:11 10° SSW 17:30:42 74° WNW 17:35:14 10° NNE
Meteor 2-10 Rocket 3.4 17:25:50 10° S 17:31:01 63° E 17:36:04 10° NNE
CZ-4 R/B 2.9 17:27:53 10° SSW 17:31:28 35° W 17:35:04 10° NNW
Cosmos 1400 Rocket 3.0 17:30:05 10° SSW 17:34:12 73° WNW 17:38:17 10° NNE
Lacrosse 5 2.1 17:29:19 10° W 17:34:18 60° S 17:35:34 45° SE
CZ-2C R/B 3.8 17:30:44 10° NNE 17:33:50 27° NE 17:33:50 27° NE
GENESIS II 4.3 17:31:59 10° SW 17:35:51 61° SSE 17:35:51 61° SSE
ARGOS 3.3 17:32:42 10° SSE 17:38:08 74° WSW 17:43:37 10° NNW
ERBS 3.1 17:34:58 10° W 17:37:46 42° SSW 17:37:46 42° SSW
Cosmos 2074 Rocket 4.2 17:33:00 10° N 17:39:03 50° ENE 17:40:33 42° ESE
Cosmos 1844 Rocket 3.3 17:33:49 10° NW 17:39:12 41° NNE 17:40:30 36° ENE
Cosmos 2227 Rocket 3.9 17:36:37 10° NW 17:41:32 31° WSW 17:46:26 10° S
EO 1 Delta rocket 4.0 17:37:30 10° NNE 17:42:54 55° E 17:43:38 50° SE
CZ-4B R/B 3.8 17:41:12 10° N 17:43:56 24° WNW 17:46:34 10° WSW
COSMO-SKYMED 1 3.3 17:41:43 10° N 17:45:58 52° WNW 17:50:12 10° SW
Cosmos 1656 3.6 17:40:48 10° SSW 17:46:18 61° ESE 17:48:05 41° ENE
Cosmos 1844 4.3 17:42:03 10° NW 17:47:19 40° NNE 17:48:20 37° NE
NOSS 2-1 (E) 3.6 17:44:46 10° W 17:48:24 63° N 17:48:52 58° NNE
Cosmos 292 Rocket 4.0 17:44:26 10° SW 17:49:15 71° NW 17:52:45 19° NNE
SJ 16-02 2.0 17:45:38 10° NNW 17:49:23 40° NNE 17:49:23 40° NNE
Cosmos 2263 Rocket 2.1 17:44:13 10° NW 17:49:57 90° NE 17:51:44 46° SE
Cosmos 883 Rocket 4.4 17:44:19 10° S 17:50:24 64° E 17:56:27 10° NNE
Cosmos 2315 Rocket 4.0 17:45:01 10° S 17:51:03 56° E 17:57:06 10° NNE
Meteor 2-1 Rocket 4.0 17:46:21 10° S 17:51:52 78° ESE 17:57:26 10° NNE
Meteor 2-17 Rocket 4.3 17:46:16 10° NNW 17:52:21 70° ENE 17:54:18 44° SE
S3M 3.9 17:47:39 10° S 17:53:48 90° N 18:00:03 10° NNE
Cosmos 1076 Rocket 4.5 17:51:06 10° NNW 17:55:11 46° W 17:58:50 12° SSW
SL-4 R/B 3.9 17:53:20 10° WSW 17:55:22 18° SSW 17:55:22 18° SSW
Cosmos 1408 4.4 17:54:33 10° NNW 17:57:48 30° W 18:01:01 10° SSW
Resurs 01 Rocket 2.5 18:00:53 37° NNE 18:00:53 37° NNE 18:03:59 10° N
H-2A R/B 3.2 17:55:07 10° S 18:00:20 46° W 18:05:37 10° NNW
Geosat 4.1 18:03:24 55° SSE 18:03:24 55° SSE 18:07:37 10° SSW
Okean 3 Rocket 3.6 18:00:07 10° NNW 18:04:08 72° N 18:04:08 72° N
Terra 3.7 18:07:25 18° NNE 18:07:25 18° NNE 18:09:34 10° N
ARIANE 5 R/B 4.0 18:07:44 27° NNE 18:07:44 27° NNE 18:10:18 10° N
Ariane Rocket 3.1 18:04:43 43° S 18:06:25 76° WSW 18:11:34 10° NNW
Cosmos 1697 Rocket 3.6 18:01:12 10° SSW 18:04:16 31° S 18:04:16 31° S
COSMOS 2455 3.2 18:01:02 10° WNW 18:06:59 53° NNE 18:08:10 46° NE
Cosmos 1825 3.7 18:03:59 10° NNW 18:07:29 36° W 18:09:07 24° SW
Cosmos 1766 Rocket 3.7 18:07:00 10° NNW 18:11:02 71° N 18:11:02 71° N
IRS-1A Rocket 4.4 18:10:26 34° S 18:12:53 71° WSW 18:18:26 10° NNW
Cosmos 990 Rocket 4.3 18:12:57 10° NNW 18:17:46 54° NNE 18:17:46 54° NNE
MetOp-B 4.4 18:19:04 52° NE 18:19:04 52° NE 18:23:44 10° NNW
Cosmos 2154 Rocket 4.0 18:12:28 10° N 18:18:38 58° ENE 18:18:41 58° ENE
SPOT 1/Viking Rocket 4.4 18:20:24 36° NNE 18:20:24 36° NNE 18:24:08 10° N
SPOT 5 4.5 18:21:10 23° NNE 18:21:10 23° NNE 18:23:37 10° N
MOS 1 4.5 18:19:44 39° S 18:21:52 68° WSW 18:27:34 10° NNW
NOSS 3-4 (A) 4.3 18:18:11 10° WNW 18:24:40 51° SW 18:27:19 35° S
NOSS 3-4 (C) 4.3 18:18:18 10° WNW 18:24:46 51° SW 18:27:24 36° S
Cosmos 2369 Rocket 3.7 18:22:50 10° WNW 18:27:53 31° NNW 18:30:28 22° NNE
SeaSat 1 4.4 18:29:14 14° SSW 18:32:26 25° WSW 18:36:29 10° NW
USA 215 4.0 18:36:03 35° S 18:37:32 39° SW 18:43:37 10° WNW
Cosmos 1937 Rocket 4.1 18:32:28 10° NNW 18:36:32 46° N 18:36:32 46° N
Cosmos 1818 4.0 18:33:32 10° W 18:38:55 55° N 18:39:20 53° N
OBJECT-B 3.7 18:42:52 15° NNW 18:42:52 15° NNW 18:43:34 10° NNW
Meteor 2-3 Rocket 4.1 18:35:28 10° NNW 18:41:05 61° W 18:42:24 48° SSW
RESURS DK-1 4.1 18:40:37 10° NW 18:42:57 28° NNW 18:42:57 28° NNW
ATLAS 2AS CENTAUR R/B 3.4 18:39:29 10° WNW 18:46:47 50° SW 18:48:35 41° S
Cosmos 1610 Rocket 4.4 18:46:55 10° NNW 18:53:12 85° NNE 18:53:12 85° NNE
CZ-4C R/B 2.9 18:49:43 10° WNW 18:56:18 65° SW 18:57:03 61° S
ERS-1 Rocket 4.3 18:58:47 31° N 18:58:47 31° N 19:01:37 10° NNW
Cosmos 2184 Rocket 4.2 18:57:05 10° NNW 19:03:19 65° W 19:04:04 60° SW
SPOT 3 Rocket 4.1 19:04:29 54° WNW 19:04:29 54° WNW 19:09:10 10° NNW
Cosmos 1943 Rocket 3.6 19:01:08 10° NW 19:05:52 28° N 19:06:28 27° NNE
Cosmos 2278 Rocket 3.2 19:03:27 10° NW 19:08:00 39° N 19:08:00 39° N
Cosmos 1898 Rocket 4.2 19:03:42 10° NNW 19:07:40 51° NW 19:07:40 51° NW
ATLAS 5 CENTAUR R/B 2.9 19:10:23 10° WNW 19:13:43 44° NW 19:13:43 44° NW
CZ-2C R/B 3.4 19:10:59 10° NNE 19:15:19 50° NNW 19:15:19 50° NNW
Lacrosse 5 3.6 19:12:08 10° W 19:14:46 27° WSW 19:14:46 27° WSW
Cosmos 1844 Rocket 3.4 19:17:54 10° NW 19:22:09 52° NW 19:22:09 52° NW
SJ 16-02 3.5 19:24:18 10° NW 19:26:22 25° NW 19:26:22 25° NW
Cosmos 2341 Rocket 4.5 19:22:44 10° NNW 19:27:30 55° N 19:27:30 55° N
Cosmos 2263 Rocket 3.8 19:28:36 10° NW 19:33:20 28° WSW 19:33:26 28° WSW
Resurs 01 Rocket 3.8 19:38:27 23° NW 19:38:27 23° NW 19:40:29 10° NNW
Terra 4.0 19:46:19 22° N 19:46:19 22° N 19:48:00 10° NNW
COSMOS 2455 3.8 19:47:16 10° NW 19:51:18 44° WNW 19:51:18 44° WNW
Cosmos 2369 Rocket 3.9 20:08:22 10° NW 20:12:14 29° N 20:12:14 29° N
CZ-4C R/B 4.4 20:38:27 10° WNW 20:42:14 24° W 20:42:14 24° W
Cosmos 1943 Rocket 4.2 20:45:43 10° NW 20:47:58 23° NNW 20:47:58 23° NNW
Cosmos 2278 Rocket 4.2 20:47:44 10° NW 20:49:50 23° NW 20:49:50 23° NW
SL-16 R/B 4.4 21:19:40 22° NNE 21:19:40 22° NNE 21:23:27 10° NNW
SL-16 R/B 4.2 23:04:46 27° N 23:04:46 27° N 23:07:28 10° NNW
SL-16 R/B 4.4 23:07:10 20° NNE 23:07:10 20° NNE 23:09:15 10° NE
Cosmos 2333 Rocket 4.4 23:14:55 21° NNE 23:14:55 21° NNE 23:16:48 10° NE
Cosmos 2237 Rocket 4.4 23:25:06 21° NE 23:25:06 21° NE 23:26:52 10° NE
Cosmos 2360 Rocket 4.3 23:32:47 23° NNE 23:32:47 23° NNE 23:35:18 10° NE
ADEOS II 4.5 23:38:26 10° NE 23:40:34 18° ENE 23:40:34 18° ENE
Cosmos 1980 Rocket 4.2 23:45:27 23° NE 23:45:27 23° NE 23:48:13 10° ENE
SL-16 R/B 4.1 23:50:35 25° NE 23:50:35 25° NE 23:52:54 10° NE
